www.pogodaiklimat.ru

Погода и климат >> Архив погоды >> Испания >> Лерида


ПОГОДА в Лериде

  • Прогноз погоды в Лериде
  • Монитор погоды в Лериде

АРХИВ ПОГОДЫ в Лериде

Время (UTC), дата Ветер
(напр.,м/с)
 
Видим.   Явления Облачность Т
(С)
Тd
(С)
f
(%)
Тe
(С)
Тes
(С)
Комфортность P
(гПа)
Po
(гПа)
Тmin
(С)
Tmax
(С)
R
(мм)
R24
(мм)
S
(см)
13 18.08 В 2 20 км н/о +34.9 +18.9 39 +40 +40 очень
душно
1009.5 987.7
14 18.08 СВ 2 20 км н/о +36.5 +16.1 30 +39 +39 очень
душно
1008.7 987.0
15 18.08 В 2 20 км н/о +37.6 +16.0 28 +39 +39 очень
душно
1008.0 986.4
16 18.08 В 2 20 км н/о +36.5 +14.5 27 +38 +38 очень
душно
1007.8 986.1
17 18.08 Ю 4 20 км н/о +34.9 +18.5 38 +39 +39 очень
душно
1007.7 985.9
18 18.08 Ю 3 20 км дымка н/о +32.9 +17.1 39 +36 +36 очень
душно
1007.9 986.0 +37.9 0.0
19 18.08 Ю 3 20 км н/о +29.9 +17.4 47 +34 +34 очень
душно
1008.7 986.5
20 18.08 ЮЗ 2 20 км н/о +28.1 +17.6 53 +32 +32 душно 1010.1 987.8
21 18.08 ЮЗ 1 20 км н/о +26.8 +17.8 58 +31 +31 душно 1011.0 988.6
22 18.08 С 2 20 км н/о +25.9 +18.6 64 +31 +31 очень
душно
1011.6 989.1
23 18.08 С 2 20 км н/о +24.7 +17.2 63 +29 +29 душно 1012.7 990.1
00 19.08 В 1 20 км н/о +24.0 +16.8 64 +28 +28 душно 1013.0 990.3
01 19.08 Ю 2 20 км н/о +24.2 +17.4 66 +28 +28 душно 1013.4 990.7
02 19.08 Ю 3 20 км н/о +23.4 +16.2 64 +28 +28 душно 1013.8 991.0
03 19.08 Ю 3 20 км н/о +21.9 +16.0 69 +26 +26 душно 1014.2 991.3
04 19.08 ЮЗ 3 20 км н/о +21.1 +15.9 72 +24 +24 комфорт 1014.8 991.8
05 19.08 Ю 2 20 км н/о +20.4 +14.7 70 +24 +24 комфорт 1015.2 992.2
06 19.08 Ю 3 25 км 6/3 1000 м
[Cu hum Ac trans Cc]
+20.0 +14.4 70 +23 +23 комфорт 1015.7 992.6 +19.7
07 19.08 Ю 3 20 км н/о +21.0 +14.4 66 +24 +24 комфорт 1016.5 993.5
08 19.08 ЮЗ 4 20 км н/о +22.1 +13.7 59 +25 +25 комфорт 1016.7 993.7
09 19.08 ЮЗ 3 20 км н/о +22.8 +13.8 57 +26 +26 жарко 1017.2 994.3
10 19.08 Ю 2 20 км н/о +24.7 +14.5 53 +27 +27 жарко 1017.0 994.2
11 19.08 Ю 2 20 км н/о +26.9 +14.3 46 +29 +29 жарко 1016.6 994.0
12 19.08 СВ 2 40 км 8/0 1500 м
[Ac trans Cc]
+28.1 +15.0 45 +31 +42 душно 1016.1 993.6
13 19.08 ЮВ 2 20 км н/о +30.2 +15.5 41 +33 +33 душно 1015.6 993.3
14 19.08 СВ 2 19 км н/о +30.9 +16.1 41 +34 +34 душно 1014.8 992.6 0.0
15 19.08 СЗ 2 20 км н/о +31.2 +16.4 41 +34 +34 душно 1014.3 992.1 0.0
16 19.08 С 2 20 км н/о +30.4 +16.8 44 +34 +34 очень
душно
1013.8 991.6
17 19.08 С 1 20 км н/о +30.1 +17.2 46 +34 +34 очень
душно
1013.8 991.5
18 19.08 ЮЗ 4 20 км дымка н/о +28.5 +19.2 57 +34 +34 очень
душно
1014.5 992.1 +31.4
19 19.08 ЮЗ 3 20 км н/о +26.4 +19.0 64 +32 +32 очень
душно
1014.9 992.4
20 19.08 З 2 20 км н/о +25.9 +19.1 66 +31 +31 очень
душно
1015.7 993.1
21 19.08 ЮЗ 2 20 км н/о +25.4 +19.5 70 +31 +31 очень
душно
1016.0 993.4
22 19.08 ЮЗ 1 20 км н/о +24.7 +19.8 74 +30 +30 очень
душно
1016.4 993.7
23 19.08 З 1 20 км н/о +24.6 +19.7 74 +30 +30 очень
душно
1016.3 993.6
00 20.08 СЗ 1 19 км н/о +24.4 +19.5 74 +30 +30 очень
душно
1016.2 993.5
01 20.08 С 2 19 км н/о +24.0 +19.1 74 +29 +29 душно 1015.9 993.2
02 20.08 СВ 1 19 км н/о +23.1 +19.1 78 +29 +29 очень
душно
1016.0 993.2
03 20.08 З 4 20 км н/о +22.4 +17.5 74 +27 +27 душно 1016.5 993.6
04 20.08 СЗ 3 10 км дождь н/о +20.5 +18.3 87 +25 +25 комфорт 1017.0 994.0 0.4
05 20.08 СВ 2 10 км слаб. морось с дождем н/о +19.1 +17.2 89 +21 +21 комфорт 1017.5 994.3 5
06 20.08 С 1 10 км слаб. дождь 10/3 1500 м
[Frnb Ac As]
+18.9 +17.7 93 +21 +22 комфорт 1018.2 995.0 +18.9 7
07 20.08 З 2 19 км в посл. час дождь н/о +19.2 +18.2 94 +22 +22 комфорт 1018.8 995.6 0.0
08 20.08 СЗ 2 6000 м дождь н/о +18.9 +17.9 94 +21 +21 комфорт 1020.1 996.9 5
09 20.08 ЮЗ 1 19 км слаб. дождь 10/4 1000 м
[Frnb Ac As]
+18.7 +17.5 93 +21 +23 комфорт 1021.0 997.7 7
10 20.08 ЮЗ 2 7000 м дождь н/о +18.8 +18.0 95 +21 +21 комфорт 1021.3 998.0 3
11 20.08 З 2 6000 м дождь н/о +18.8 +18.0 95 +21 +21 комфорт 1021.6 998.3 2
12 20.08 З 2 18 км в посл. час дождь 10/3 1000 м
[Frnb Ac As]
+19.0 +17.8 93 +21 +25 комфорт 1021.4 998.1 7
13 20.08 ЮЗ 3 20 км слаб. морось н/о +20.3 +18.4 89 +24 +24 комфорт 1021.6 998.4 0.0
14 20.08 ЮЗ 3 20 км в посл. час дождь н/о +20.9 +18.1 84 +26 +26 душно 1021.2 998.1 0.0
15 20.08 ЮЗ 3 20 км н/о +22.5 +17.6 74 +28 +28 душно 1021.0 998.0 0.0
16 20.08 ЮЗ 3 19 км н/о +23.5 +17.5 69 +27 +27 душно 1020.5 997.6
17 20.08 Ю 3 20 км н/о +23.4 +17.4 69 +29 +29 душно 1020.3 997.4
18 20.08 Ю 3 20 км дымка н/о +22.2 +17.3 74 +27 +27 душно 1020.7 997.7 +23.6
19 20.08 ЮЗ 2 20 км н/о +20.5 +17.1 81 +25 +25 комфорт 1021.3 998.1
20 20.08 С 1 17 км н/о +19.5 +16.9 85 +23 +23 комфорт 1021.6 998.4
21 20.08 штиль 0 15 км н/о +18.7 +17.0 90 +20 +20 1022.1 998.8
22 20.08 С 1 13 км н/о +18.6 +17.3 92 +21 +21 комфорт 1022.4 999.1
23 20.08 С 1 13 км н/о +18.2 +16.9 92 +20 +20 1022.4 999.0
00 21.08 С 1 12 км н/о +17.9 +16.9 94 +19 +19 1022.3 998.9
01 21.08 В 2 8000 м н/о +17.7 +16.9 95 +18 +18 1022.2 998.8
02 21.08 Ю 1 8000 м н/о +17.7 +16.9 95 +19 +19 1022.0 998.6
03 21.08 В 1 8000 м н/о +17.5 +16.5 94 +19 +19 1022.0 998.6
04 21.08 ЮЗ 1 н/о н/о +17.2 +16.6 96 +19 +19 1021.8 998.4
05 21.08 ЮВ 1 4900 м н/о +16.9 +16.1 95 +18 +18 1022.0 998.5
06 21.08 Ю 1 14 км н/о +16.8 +16.2 96 +18 +18 1022.0 998.5 +16.5
07 21.08 ЮЗ 2 7000 м н/о +18.0 +17.2 95 +19 +19 1022.0 998.6
08 21.08 З 2 19 км н/о +19.6 +17.6 88 +23 +23 комфорт 1021.7 998.5
09 21.08 ЮЗ 2 18 км н/о +22.1 +17.7 76 +27 +27 душно 1021.4 998.4
10 21.08 ЮЗ 2 20 км н/о +23.8 +18.0 70 +28 +28 душно 1020.8 997.9
11 21.08 З 3 19 км н/о +25.4 +17.6 62 +30 +30 душно 1020.0 997.3
12 21.08 ЮЗ 3 20 км 4/1 600 м
[Cu med, cong Ci sp]
+26.9 +18.5 60 +32 +43 очень
душно
1019.1 996.5
13 21.08 ЮЗ 3 20 км н/о +28.1 +17.3 52 +32 +32 душно 1018.4 995.9
14 21.08 З 3 20 км н/о +28.4 +16.7 49 +32 +32 душно 1017.5 995.0 0.0
15 21.08 З 2 20 км н/о +27.9 +17.4 53 +32 +32 душно 1017.2 994.7 0.0
16 21.08 СЗ 2 20 км н/о +27.1 +17.0 54 +31 +31 душно 1017.1 994.5
17 21.08 СЗ 2 20 км н/о +26.5 +17.6 58 +31 +31 душно 1016.8 994.2
18 21.08 СЗ 1 19 км дымка н/о +26.1 +17.5 59 +30 +30 душно 1017.2 994.6 +29.4
19 21.08 Ю 2 20 км н/о +24.7 +18.2 67 +29 +29 душно 1017.7 995.0
20 21.08 Ю 1 20 км н/о +23.9 +18.8 73 +29 +29 душно 1018.8 996.0
21 21.08 С 1 19 км н/о +23.5 +19.2 77 +28 +28 душно 1018.8 996.0
22 21.08 С 1 19 км н/о +22.8 +19.2 80 +29 +29 очень
душно
1019.3 996.4
23 21.08 С 1 16 км н/о +22.1 +19.1 83 +28 +28 душно 1019.6 996.6
00 22.08 СВ 2 13 км н/о +21.5 +19.1 86 +26 +26 душно 1019.3 996.3
01 22.08 СВ 2 11 км н/о +21.0 +18.8 87 +26 +26 душно 1018.8 995.8
02 22.08 З 2 9000 м н/о +20.5 +18.8 90 +25 +25 комфорт 1019.2 996.1
03 22.08 ЮЗ 1 6000 м н/о +19.9 +18.6 92 +24 +24 комфорт 1019.5 996.4
04 22.08 ЮЗ 3 10 км н/о +18.9 +17.6 92 +21 +21 комфорт 1019.9 996.7
05 22.08 ЮЗ 2 20 км н/о +17.7 +15.5 87 +18 +18 1020.5 997.1
06 22.08 ЮЗ 1 20 км ясно +17.5 +14.9 85 +19 +19 1021.1 997.7 +17.4
07 22.08 ЮЗ 2 19 км н/о +19.1 +15.6 80 +21 +21 комфорт 1021.5 998.2
08 22.08 ЮЗ 3 20 км н/о +20.7 +15.0 70 +24 +24 комфорт 1021.7 998.5
09 22.08 ЮЗ 3 24 км 4/3 1000 м
[Cu Sc Ci sp]
+22.4 +14.8 62 +26 +26 жарко 1021.4 998.4
10 22.08 ЮЗ 3 19 км н/о +24.2 +15.4 58 +27 +27 жарко 1021.3 998.4
11 22.08 З 3 20 км н/о +25.6 +14.7 51 +28 +28 жарко 1020.8 998.0
12 22.08 ЮЗ 3 25 км 3/3 1000 м
[Cu med, cong]
+27.2 +15.6 49 +30 +40 душно 1020.1 997.5
13 22.08 З 3 20 км н/о +28.9 +14.7 42 +31 +31 жарко 1019.5 997.0
14 22.08 ЮЗ 3 20 км н/о +29.7 +14.7 40 +32 +32 душно 1018.8 996.4
15 22.08 З 2 20 км н/о +30.7 +13.5 35 +32 +32 жарко 1018.2 995.8
16 22.08 ЮЗ 2 19 км н/о +30.9 +13.7 35 +32 +32 жарко 1017.8 995.5
17 22.08 ЮЗ 2 20 км н/о +30.9 +13.7 35 +32 +32 жарко 1017.4 995.1
18 22.08 З 1 20 км н/о +30.6 +12.5 33 +31 +31 жарко 1017.5 995.1 +31.0
19 22.08 С 1 20 км н/о +26.9 +14.3 46 +29 +29 жарко 1018.0 995.4
20 22.08 В 2 20 км н/о +24.2 +14.9 56 +27 +27 жарко 1019.2 996.4
21 22.08 С 1 20 км н/о +23.0 +16.5 67 +28 +28 душно 1019.8 996.9
22 22.08 СВ 2 19 км н/о +21.4 +16.8 75 +25 +25 комфорт 1020.4 997.3
23 22.08 С 2 20 км н/о +20.8 +17.0 79 +25 +25 комфорт 1020.5 997.4
00 23.08 С 2 19 км н/о +20.6 +17.2 81 +25 +25 комфорт 1020.6 997.5
01 23.08 СВ 2 19 км н/о +20.2 +17.2 83 +24 +24 комфорт 1020.8 997.6
02 23.08 СВ 2 18 км н/о +19.8 +17.2 85 +23 +23 комфорт 1020.8 997.6
03 23.08 СВ 2 15 км н/о +19.3 +17.3 88 +22 +22 комфорт 1020.7 997.5
04 23.08 СВ 1 12 км н/о +18.8 +17.1 90 +21 +21 комфорт 1020.5 997.2
05 23.08 СВ 2 11 км н/о +18.5 +17.0 91 +20 +20 1020.5 997.2
06 23.08 СВ 1 12 км 1/1 600 м
[St]
+18.8 +17.3 91 +21 +22 комфорт 1020.9 997.6 +18.3
07 23.08 СВ 2 16 км н/о +20.7 +17.3 81 +25 +25 комфорт 1020.9 997.8
08 23.08 СВ 2 19 км н/о +23.0 +17.0 69 +28 +28 душно 1021.1 998.1
09 23.08 Ю 1 20 км н/о +25.7 +16.5 57 +29 +29 душно 1020.9 998.1
10 23.08 ЮЗ 2 20 км н/о +27.3 +17.5 55 +31 +31 душно 1020.3 997.7
11 23.08 ЮЗ 2 20 км н/о +29.2 +16.0 45 +32 +32 душно 1019.7 997.2
12 23.08 ЮЗ 2 35 км 1/1 600 м
[Cu hum]
+30.8 +12.2 32 +31 +47 жарко 1019.0 996.6
13 23.08 З 2 20 км н/о +31.9 +12.2 30 +32 +32 жарко 1018.4 996.1 0.0
14 23.08 СЗ 3 20 км н/о +32.6 +11.2 27 +32 +32 жарко 1017.5 995.3
15 23.08 СЗ 2 19 км н/о +33.4 +10.7 25 +33 +33 жарко 1017.0 994.8 0.0
16 23.08 СЗ 2 20 км н/о +33.1 +12.1 28 +33 +33 жарко 1016.6 994.4
17 23.08 З 1 20 км н/о +32.9 +10.9 26 +33 +33 жарко 1016.3 994.1
18 23.08 ЮЗ 2 20 км дымка н/о +31.9 +13.2 32 +33 +33 жарко 1016.2 994.0 +33.5 0.0
19 23.08 Ю 1 20 км н/о +27.8 +16.7 51 +31 +31 душно 1016.9 994.4 0.0
20 23.08 ЮЗ 2 20 км н/о +25.8 +15.8 54 +29 +29 душно 1017.8 995.1
21 23.08 З 1 20 км н/о +24.4 +15.6 58 +27 +27 жарко 1018.3 995.5 0.0
22 23.08 СВ 2 20 км н/о +22.7 +16.5 68 +27 +27 душно 1018.8 995.9
23 23.08 С 2 20 км н/о +22.1 +16.6 71 +26 +26 душно 1019.0 996.0
00 24.08 СВ 1 19 км дымка н/о +21.4 +16.4 73 +25 +25 комфорт 1019.3 996.3
01 24.08 С 2 19 км н/о +20.9 +16.3 75 +25 +25 комфорт 1019.0 995.9
02 24.08 С 1 18 км н/о +20.2 +16.2 78 +24 +24 комфорт 1019.1 996.0
03 24.08 С 1 17 км н/о +19.5 +16.2 81 +23 +23 комфорт 1019.1 995.9
04 24.08 СВ 2 14 км н/о +18.9 +16.1 84 +21 +21 комфорт 1019.0 995.8
05 24.08 СВ 2 15 км н/о +18.6 +16.0 85 +20 +20 1019.3 996.0
06 24.08 СВ 1 20 км ясно +18.6 +16.2 86 +21 +21 комфорт 1019.4 996.1 +18.4
07 24.08 СВ 1 15 км н/о +20.8 +16.8 78 +25 +25 комфорт 1019.5 996.4
08 24.08 СВ 2 19 км н/о +23.4 +17.2 68 +29 +29 душно 1019.3 996.4
09 24.08 В 2 20 км ясно +26.2 +17.0 57 +30 +40 душно 1019.3 996.6
10 24.08 СВ 2 19 км н/о +28.1 +16.7 50 +32 +32 душно 1018.8 996.3 0.0
11 24.08 З 2 20 км н/о +30.4 +15.7 41 +33 +33 душно 1018.2 995.8
12 24.08 З 2 25 км 3/3 1000 м
[Cu hum]
+31.7 +13.5 33 +33 +45 жарко 1017.5 995.2 0.0
13 24.08 З 3 20 км н/о +32.7 +15.2 35 +35 +35 душно 1016.8 994.6
14 24.08 З 3 20 км н/о +33.6 +13.1 29 +34 +34 очень
жарко
1016.4 994.3
15 24.08 ЮЗ 3 20 км н/о +34.2 +13.6 29 +35 +35 очень
жарко
1015.7 993.7
16 24.08 З 2 19 км н/о +34.1 +13.5 29 +35 +35 очень
жарко
1015.3 993.3
17 24.08 ЮЗ 2 20 км н/о +33.9 +14.4 31 +35 +35 очень
жарко
1015.0 993.0
18 24.08 Ю 3 20 км дымка н/о +31.7 +13.9 34 +33 +33 жарко 1015.2 993.0 +34.4
19 24.08 Ю 2 20 км н/о +28.6 +13.3 39 +30 +30 жарко 1015.7 993.2
20 24.08 ЮЗ 2 20 км н/о +26.6 +14.4 47 +29 +29 жарко 1016.6 994.0
21 24.08 З 1 20 км н/о +24.8 +14.6 53 +27 +27 жарко 1017.3 994.5
22 24.08 СВ 2 20 км н/о +23.4 +16.0 63 +28 +28 душно 1017.9 995.0
23 24.08 СВ 2 20 км н/о +22.4 +16.2 68 +27 +27 душно 1018.0 995.1
00 25.08 СВ 2 20 км н/о +21.7 +15.8 69 +25 +25 комфорт 1018.0 995.0
01 25.08 С 2 20 км н/о +21.0 +15.5 71 +25 +25 комфорт 1017.9 994.8
02 25.08 С 3 20 км н/о +20.8 +15.1 70 +24 +24 комфорт 1018.0 994.9
03 25.08 СВ 2 20 км н/о +20.8 +15.1 70 +25 +25 комфорт 1017.8 994.7
04 25.08 СВ 2 19 км н/о +19.7 +15.3 76 +23 +23 комфорт 1017.9 994.7
05 25.08 С 2 18 км н/о +18.8 +15.3 80 +20 +20 1018.0 994.8
06 25.08 СВ 2 19 км 3/0
[Ci fib]
+18.9 +15.4 80 +21 +21 комфорт 1018.2 995.0 +18.5
07 25.08 СВ 2 19 км н/о +21.3 +15.8 71 +25 +25 комфорт 1018.2 995.2
08 25.08 СВ 2 20 км н/о +23.7 +16.2 63 +27 +27 жарко 1018.1 995.3
09 25.08 СВ 2 25 км 3/0
[Ci fib]
+26.5 +14.9 49 +29 +38 жарко 1018.1 995.5
10 25.08 В 2 20 км н/о +29.1 +14.9 42 +32 +32 душно 1017.4 995.0
11 25.08 СВ 2 20 км н/о +30.9 +12.8 33 +32 +32 жарко 1016.5 994.2
12 25.08 СВ 2 25 км 3/1 1000 м
[Cu hum Ci fib]
+32.6 +12.8 30 +33 +48 жарко 1015.8 993.6

 

Местоположение метеостанции Лерида (Испания): широта 41.63 долгота 0.60 высота над уровнем моря 199 м.

В архиве по умолчанию представлена погода в Лериде за последнюю неделю. Архивные данные за месяц целиком и за предыдущие месяцы, начиная с января 2011 года, Вы можете получить, выбрав интересующий диапазон дат из раскрывающегося списка и нажав кнопку "Ввод!".


*Определитесь, кто Вы:
робот инопланетянин человек

Внимание! Время в таблицах - всемирное. Для получения местного времени необходимо прибавить поправку, которая равна 1 ч.

Смотрите также архив погоды в соседних городах и на ближайших метеорологических станциях:

Погода в Тарреге (Испания) (46 км)
Погода в Таларе (Испания) (68 км)
Погода в Каспере (Испания) (71 км)
Погода в Реусе (Испания) (72 км)
Погода в Вандельосе (Испания) (78 км)
Погода в Альканьисе (Испания) (89 км)
Погода в Тортосе (Испания) (90 км)
Погода в Каланде (Испания) (103 км)
Погода в Манресе (Испания) (104 км)
Погода в Барселоне Сант-Жауме (Испания) (105 км)

Пояснения к столбцам:

Ветер - указаны скорость ветра в м/с - средняя за 10 мин, порывы в срок и между сроками (в фигурных скобках) и направление, откуда дует ветер: С - северный, СВ - северо-восточный, В - восточный, ЮВ - юго-восточный, Ю - южный, ЮЗ - юго-западный, З - западный, СЗ - северо-западный.
Видимость - горизонтальная дальность видимости в метрах или километрах. При видимости от 1 до 10 км при отсутствии осадков обычно наблюдается дымка, при ухудшении видимости до 1 км и менее - туман. В сухую погоду видимость может ухудшаться дымом, пылью или мглою.
Явления - указаны атмосферные явления, наблюдавшиеся в срок или в последний час перед сроком; фигурными скобками обозначены явления, наблюдавшиеся между сроками (за 1-3 часа до срока); квадратными скобками обозначены град или гололедные отложения с указанием их диаметра в мм.
Облачность - указаны через наклонную черту общая и нижняя облачность в баллах и высота нижней границы облаков в метрах; квадратными скобками обозначены формы облаков: Ci - перистые, Cs - перисто-слоистые, Cc - перисто-кучевые, Ac - высококучевые, As - высокослоистые, Sc - слоисто-кучевые, Ns - слоисто-дождевые, Cu - кучевые, Cb - кучево-дождевые. Подробнее классификацию облаков см. в Атласе облаков (PDF).
T - Температура воздуха - температура, измеренная на высоте 2 м над землей.
Td - Температура точки росы - температура, при понижении до которой содержащийся в воздухе водяной пар достигнет насыщения.
f - Относительная влажность воздуха - влажноcть воздуха, измеренная на высоте 2 м над землей.
Te - Эффективная температура - температура, которую ощущает одетый по сезону человек в тени. Характеристика душности погоды. При расчете учитывается влияние влажности воздуха и скорости ветра на теплоощущения человека.
Tes - Эффективная температура на солнце - температура, которую ощущает человек, с поправкой на солнечный нагрев. Характеристика знойности погоды. Зависит от высоты солнца над горизонтом, облачности и скорости ветра. Ночью, в пасмурную погоду, а также при ветре 12 м/с и более поправка равна нулю.
P - Атмосферное давление - приведенное к уровню моря атмосферное давление.
Po - Атмосферное давление - измеренное на уровне метеостанции атмосферное давление.
Tmin - Минимальная температура - минимум температуры воздуха на высоте 2 м над землей.
Tmax - Максимальная температура - максимум температуры воздуха на высоте 2 м над землей.
R - Количество осадков - Количество выпавших осадков за период времени, мм. При наведении курсора мыши на число - период времени, за который выпало указанное количество осадков.
R24 - Количество осадков - Количество выпавших осадков за 24 часа, мм.
S - Снежный покров - Высота снежного покрова, см. При наведении курсора мыши на число - состояние снежного покрова и степень покрытия местности в баллах.